Temperature
15 15 15 15 15 15 15 15 15 15 15 15 15 16 16 16 16 16 16 16 16 16 16 16 17 17 17 17 17 17 17 17 17 17 17 17 17 17 18 18 18 18 18
15 15 15 15 15 15 15 15 15 15 15 15 15 15 15 15 15 15 15 16 16 16 16 16 16 16 17 17 17 17 17 17 17 17 17 17 17 18 18 18 18 18 18
15 15 15 15 15 15 15 15 15 15 15 15 15 15 15 15 15 15 15 15 15 16 16 16 16 16 16 17 17 17 17 17 17 17 17 17 18 18 18 18 18 18 18
15 15 15 15 14 15 15 15 15 15 15 15 15 15 15 15 15 15 15 16 15 15 16 16 16 16 16 16 17 17 17 17 17 17 17 17 17 18 18 17 17 17 18
15 15 15 14 14 14 15 15 15 15 15 15 15 15 15 15 15 15 15 15 15 15 15 16 16 16 16 16 16 17 17 17 17 17 17 17 17 17 18 18 17 17 18
15 15 15 14 14 14 14 14 14 14 15 15 15 15 15 15 15 15 15 15 15 15 15 15 16 16 16 16 16 16 17 17 17 17 17 17 17 17 17 17 17 17 17
15 15 14 14 14 14 14 14 14 14 15 15 15 15 15 15 15 15 15 15 15 15 15 15 15 15 16 16 16 16 16 16 16 17 17 17 17 17 17 17 17 17 17
15 15 14 14 14 14 14 14 14 14 14 15 15 16 16 16 15 15 15 15 15 15 15 15 15 15 15 16 16 16 16 16 16 16 17 17 17 17 17 17 17 17 17
15 15 14 14 14 14 14 14 14 14 14 14 14 15 16 16 15 15 15 15 15 15 15 15 15 15 15 15 15 16 16 16 16 16 16 16 17 17 17 17 17 17 17
15 15 14 14 14 14 14 14 14 14 14 14 14 14 15 14 15 15 15 15 15 15 15 15 15 15 15 15 15 15 16 16 16 16 16 16 16 16 17 17 17 17 17
15 15 15 14 14 14 14 14 14 14 14 14 14 14 14 14 15 15 15 15 15 15 15 15 15 15 15 15 15 15 15 16 16 16 16 16 16 16 16 17 17 17 17
15 15 15 14 14 14 14 14 14 14 14 14 14 14 14 14 14 15 15 15 15 15 15 15 15 15 15 15 15 15 15 16 16 16 16 16 16 16 16 16 16 16 16
15 15 15 15 14 14 14 14 14 14 14 14 14 14 14 14 14 14 14 15 15 15 14 15 14 14 14 15 15 15 15 15 15 16 16 16 16 16 16 16 16 16 16
15 15 15 15 15 14 14 14 14 14 14 14 14 14 14 14 14 14 14 14 15 15 15 15 14 14 14 14 15 15 15 15 15 15 15 16 16 16 16 16 16 16 16
15 15 15 15 15 14 14 14 14 14 14 14 14 14 13 13 13 13 14 14 14 15 15 14 14 14 14 14 15 15 15 15 15 15 15 15 15 15 15 15 15 15 16
15 15 15 15 14 14 14 14 14 14 14 14 14 14 13 13 14 14 13 14 14 14 14 14 14 14 14 14 14 14 14 15 15 15 15 15 15 15 15 15 15 15 15
15 15 15 14 14 14 14 14 14 14 13 13 13 13 13 13 13 13 13 13 13 13 13 13 14 13 13 14 14 14 14 14 14 15 15 15 15 15 15 15 15 15 15
15 15 14 14 14 14 14 14 14 14 14 13 13 13 13 13 13 13 13 13 13 13 13 13 13 13 13 13 14 14 14 14 14 15 15 15 15 15 15 15 15 15 15
14 14 14 14 14 14 14 13 13 13 13 13 13 13 13 13 13 13 13 13 13 13 13 13 13 13 13 13 13 14 14 14 14 14 14 15 15 15 15 15 15 15 15
14 14 14 14 13 13 13 13 13 13 13 13 13 13 13 13 12 12 12 12 12 12 12 12 12 13 13 13 13 13 13 13 13 13 14 14 14 14 14 15 15 15 15
14 14 14 13 13 13 13 13 13 12 12 12 12 12 12 12 12 12 12 12 12 12 12 12 12 12 12 12 12 12 12 13 13 13 13 13 13 14 14 14 14 14 14
14 13 13 13 13 13 13 13 12 12 12 12 12 12 12 12 12 12 12 12 12 12 12 11 11 11 11 11 12 12 12 12 12 12 13 13 13 13 13 13 14 14 14
13 13 13 13 12 12 12 12 12 12 11 11 11 11 11 11 11 11 11 11 11 11 11 11 11 11 11 11 11 11 11 11 12 12 12 12 12 13 13 13 13 13 14
13 13 12 12 12 12 12 12 12 11 11 11 11 11 11 11 11 11 11 11 11 11 11 11 10 10 11 11 11 10 10 11 11 11 11 11 12 12 12 12 13 13 13
13 12 12 12 12 12 12 12 11 11 11 11 10 10 10 10 11 11 10 10 10 10 10 11 11 11 11 11 11 10 10 10 10 11 11 11 11 11 11 12 12 12 13
12 12 12 11 11 11 11 11 11 10 10 10 10 10 10 10 10 10 10 10 10 10 10 10 10 10 10 10 10 10 10 10 10 10 10 10 10 10 11 11 11 11 12
Wind_Speed
4 3 3 3 4 4 3 3 3 3 3 3 2 2 2 1 1 1 3 6 4 5 4 4 3 3 3 2 3 3 3 3 3 3 4 5 7 8 10 11 12 13 13
3 3 3 3 4 4 4 3 3 2 2 2 2 2 2 2 2 1 1 3 5 3 4 4 3 3 3 3 3 3 4 4 4 4 4 6 7 8 10 10 13 14 14
4 4 4 4 4 3 3 3 3 2 2 1 1 1 1 2 2 2 2 1 1 4 3 3 3 4 4 4 3 3 4 4 4 4 4 5 7 8 11 11 13 14 14
5 4 4 4 4 4 3 3 3 2 2 2 2 2 1 1 2 2 1 1 2 2 4 4 4 4 4 4 4 4 4 3 4 3 2 3 6 8 9 11 12 13 14
5 4 4 4 4 3 3 3 3 3 3 3 2 2 2 2 2 2 2 3 3 2 2 4 3 3 4 4 4 4 4 3 3 2 0 3 5 7 8 10 11 13 14
5 5 3 4 4 3 3 3 3 3 2 2 2 2 2 2 2 3 3 2 3 3 2 3 1 3 4 4 5 4 3 3 3 2 1 3 4 6 8 9 10 12 13
5 5 4 5 4 4 4 4 3 3 3 2 1 1 2 2 3 3 3 3 3 3 2 3 3 3 2 3 4 5 5 3 2 3 2 3 4 6 8 9 9 11 13
4 4 5 4 4 3 4 4 4 3 3 3 2 1 1 2 3 3 3 3 3 3 3 3 3 3 4 3 5 6 6 4 2 3 2 2 4 5 7 8 8 10 11
4 4 5 4 4 4 4 4 4 4 3 3 4 3 2 2 2 2 3 3 3 3 3 3 4 4 4 4 4 6 8 6 4 3 2 2 4 5 6 7 8 8 9
3 4 4 4 4 4 4 4 4 3 3 3 3 3 4 3 2 1 2 3 4 4 4 3 3 4 4 4 4 7 8 6 5 4 2 1 3 5 6 6 7 8 9
3 3 4 4 4 4 4 4 4 4 3 3 3 3 3 2 2 2 2 3 3 4 4 4 3 4 5 4 4 6 7 6 5 5 3 1 2 4 5 4 6 8 9
2 3 3 3 3 3 4 4 3 4 4 4 3 3 3 3 3 3 2 3 3 3 4 4 4 4 4 4 5 7 5 5 5 5 4 2 0 2 4 4 5 6 8
2 2 2 2 3 3 3 3 3 3 3 3 3 3 3 3 3 3 3 3 3 2 2 3 4 4 5 5 5 6 3 4 4 4 4 3 2 0 2 3 4 5 6
2 2 2 2 3 3 3 3 3 3 3 3 4 3 3 3 3 3 3 3 3 2 2 3 3 5 6 5 7 5 2 3 4 3 2 2 2 1 0 1 3 4 5
2 2 2 2 2 2 3 2 2 3 3 3 3 3 3 3 3 3 2 3 3 3 3 3 3 5 5 6 7 5 3 5 4 3 2 1 0 1 1 2 3 3 4
2 2 2 2 2 2 2 3 2 3 3 3 3 3 3 3 3 2 2 2 2 3 3 3 3 4 5 5 5 5 4 2 1 1 1 1 0 1 2 2 3 4 4
3 3 3 3 3 3 3 3 3 3 3 3 3 3 3 3 2 2 2 2 2 2 3 3 3 4 5 5 5 5 4 3 1 2 1 1 1 1 2 3 4 5 6
3 3 3 3 3 3 3 3 3 3 3 3 3 3 3 3 3 3 3 3 3 3 3 4 4 4 5 5 5 5 4 4 3 1 1 1 2 2 3 4 4 5 6
4 4 4 4 3 3 3 3 3 3 4 4 4 4 4 4 4 4 3 3 3 3 3 4 4 4 4 5 5 4 4 3 4 1 2 2 3 4 5 6 6 7 6
4 4 4 4 3 3 3 3 3 4 4 4 4 4 5 5 5 5 4 4 4 4 3 4 4 4 4 5 5 4 4 4 4 3 2 3 3 6 7 8 8 8 8
4 4 4 4 4 3 4 4 3 3 4 4 4 4 5 6 8 6 5 5 5 4 3 4 4 4 4 5 5 5 5 5 5 3 4 4 4 4 5 8 9 8 9
4 4 4 3 3 3 6 6 5 2 3 3 4 4 3 3 3 2 3 5 6 5 5 4 4 5 6 6 5 6 6 6 5 3 5 6 5 5 5 6 6 8 10
4 3 3 3 3 5 5 4 5 3 3 3 4 4 4 4 5 5 3 4 3 2 5 6 6 6 7 7 7 7 7 7 7 6 7 7 6 7 6 7 7 10 12
4 3 3 2 3 4 4 3 4 3 2 3 3 4 4 5 6 8 7 6 6 5 4 6 7 7 7 8 8 9 9 9 8 6 6 8 7 7 7 8 9 12 13
4 3 2 2 2 2 3 3 5 2 2 3 3 4 5 5 6 8 8 7 7 6 4 6 8 9 10 10 9 7 8 8 8 7 6 7 8 8 8 8 8 11 13
3 3 2 2 1 0 3 2 5 3 3 3 3 3 2 5 7 8 8 7 8 8 8 8 8 8 9 7 7 8 7 8 8 8 6 6 8 8 7 7 7 8 10
Wind_Direction
32 31 29 21 10 12 11 2 349 18 3 12 10 14 14 16 10 29 83 84 54 36 31 33 27 23 8 355 339 328 323 305 284 267 248 228 226 218 203 202 197 186 179
29 17 26 26 17 12 10 354 10 4 355 16 10 21 1 9 24 26 39 106 104 65 42 34 23 13 2 346 332 320 312 309 299 278 254 233 226 215 201 197 190 182 178
27 26 20 24 17 9 4 2 17 358 7 20 33 27 26 8 6 21 28 8 98 120 89 45 28 20 7 351 335 319 312 302 309 291 263 233 218 202 193 188 182 179 177
31 28 21 20 11 6 8 14 2 8 23 23 24 21 41 44 16 26 33 49 26 29 103 82 49 29 9 359 346 328 322 310 311 308 270 223 200 188 184 187 183 179 178
28 36 29 15 16 17 15 13 23 6 23 23 31 38 38 42 28 24 37 35 42 22 35 99 101 57 31 12 352 340 331 331 328 324 129 171 173 174 175 180 183 182 181
32 35 34 28 25 30 24 29 40 32 25 11 31 52 48 50 48 32 26 32 26 24 24 28 39 98 74 31 10 0 354 354 358 6 110 150 153 164 168 173 179 184 182
36 36 27 34 25 35 28 27 32 45 34 4 12 80 98 75 50 41 22 17 32 28 19 27 15 17 67 85 41 18 7 1 8 31 58 142 151 159 163 166 170 179 180
36 33 31 35 39 39 35 33 27 13 29 9 352 339 78 117 65 51 39 33 25 29 24 25 22 25 9 18 56 36 13 21 44 43 50 121 149 155 161 165 167 169 174
42 37 34 33 31 33 38 25 23 20 20 28 22 0 360 32 20 61 45 43 37 26 21 23 13 19 15 10 21 44 28 35 37 32 49 124 154 154 157 163 171 174 178
49 39 35 35 38 37 39 29 30 18 10 24 37 26 23 21 349 32 63 48 40 34 26 18 17 21 18 18 26 33 25 25 26 22 27 123 156 153 153 163 177 181 180
64 52 37 38 39 38 36 31 25 18 23 17 20 21 29 26 356 1 28 19 35 39 32 26 27 26 16 14 9 32 23 19 20 16 10 18 174 170 161 164 169 176 180
86 71 47 45 41 35 33 29 26 32 25 27 16 18 9 9 8 9 1 7 17 27 30 37 28 26 14 7 18 23 16 17 21 16 9 2 316 181 175 172 163 167 174
93 75 61 50 44 37 35 30 34 30 35 27 18 17 15 9 4 359 357 1 354 10 30 44 38 31 16 10 16 4 23 19 17 20 15 5 353 196 171 179 173 174 177
74 77 73 60 52 43 38 35 27 35 30 34 30 23 15 18 8 3 355 341 342 6 32 29 29 27 14 8 13 338 21 43 22 19 14 7 5 352 239 194 184 184 184
87 86 81 71 63 49 34 28 31 34 29 24 21 23 16 17 7 1 343 326 329 332 357 17 8 12 4 6 1 349 3 44 24 26 36 27 149 225 269 235 206 202 201
99 101 84 73 67 58 47 39 39 33 35 36 15 7 4 357 360 348 333 328 318 314 321 348 349 352 357 351 6 354 1 34 50 32 16 6 233 221 233 239 234 220 218
110 102 84 73 65 50 47 52 43 42 35 32 23 18 10 7 355 354 347 338 330 319 307 318 336 345 348 350 354 347 341 332 24 103 340 294 270 265 258 251 243 232 226
104 99 89 77 68 54 47 46 43 37 36 31 24 20 17 19 10 6 353 345 343 329 309 315 322 336 340 345 341 333 335 339 333 81 230 270 266 258 256 250 242 236 230
109 100 88 78 69 58 54 49 45 39 37 33 29 27 23 18 12 14 355 351 344 337 321 306 319 329 325 337 332 328 324 326 317 302 214 219 240 251 250 246 241 237 234
107 99 89 78 67 60 51 47 45 42 42 39 34 31 26 19 9 2 354 351 341 333 327 316 316 323 327 334 326 327 325 326 310 303 315 286 254 244 240 239 238 235 234
106 99 92 81 70 61 47 31 40 42 42 39 35 35 37 34 20 5 355 347 342 331 329 326 321 322 328 333 334 327 319 316 306 293 300 290 279 271 256 238 234 237 244
112 104 98 87 77 64 50 17 355 32 32 30 24 20 27 32 18 6 354 339 335 333 332 323 316 317 321 327 326 316 314 310 306 307 301 295 285 277 271 263 244 239 245
124 116 106 96 88 76 59 27 346 349 11 8 2 4 4 4 344 345 319 252 268 268 293 305 309 314 314 318 314 308 305 301 297 302 299 289 285 279 276 270 245 242 244
138 134 121 112 96 79 59 22 322 319 352 352 347 344 342 349 2 341 329 328 327 324 312 302 308 309 311 312 305 297 295 290 287 284 283 283 287 285 285 279 249 239 240
151 152 144 138 132 109 76 8 312 323 325 331 333 337 336 336 6 329 316 318 317 318 298 278 289 287 287 283 285 288 289 287 290 291 286 281 288 292 287 277 261 237 241
165 164 157 170 170 124 84 11 313 307 313 313 313 309 350 332 339 323 311 311 311 317 313 304 286 279 283 281 262 275 287 288 290 290 288 286 289 294 288 277 275 270 258
Height
1552 1551 1550 1549 1549 1548 1547 1546 1546 1545 1545 1544 1544 1544 1544 1543 1544 1543 1543 1541 1541 1541 1541 1541 1541 1541 1541 1540 1540 1540 1540 1539 1539 1538 1537 1537 1538 1539 1541 1542 1543 1546 1549
1553 1551 1551 1549 1549 1548 1547 1547 1546 1545 1545 1544 1543 1543 1543 1543 1543 1543 1543 1542 1541 1541 1541 1541 1540 1540 1540 1540 1539 1539 1538 1538 1537 1536 1534 1534 1534 1536 1537 1538 1538 1543 1548
1553 1552 1551 1550 1549 1548 1548 1547 1546 1545 1545 1544 1543 1543 1543 1543 1543 1542 1542 1542 1542 1541 1541 1540 1540 1540 1539 1539 1538 1538 1537 1536 1535 1533 1530 1528 1529 1531 1534 1537 1539 1543 1547
1554 1552 1551 1550 1549 1549 1548 1547 1546 1546 1545 1544 1544 1543 1543 1542 1543 1542 1542 1542 1542 1542 1541 1540 1540 1539 1539 1538 1538 1537 1536 1535 1533 1531 1527 1524 1525 1528 1532 1536 1539 1543 1546
1554 1553 1551 1550 1550 1549 1548 1547 1546 1546 1545 1544 1544 1543 1543 1543 1543 1543 1543 1542 1542 1542 1542 1541 1540 1539 1539 1538 1537 1536 1535 1534 1532 1530 1527 1525 1525 1527 1529 1533 1537 1541 1545
1555 1553 1552 1551 1550 1549 1548 1548 1547 1546 1545 1545 1545 1544 1544 1543 1543 1543 1543 1542 1542 1542 1542 1541 1541 1540 1538 1538 1537 1535 1534 1533 1532 1530 1529 1528 1528 1528 1528 1531 1534 1537 1543
1555 1554 1553 1552 1550 1550 1549 1549 1548 1547 1546 1546 1546 1545 1544 1544 1544 1543 1543 1543 1542 1541 1541 1541 1541 1540 1539 1537 1536 1535 1533 1531 1531 1531 1530 1530 1530 1530 1530 1532 1533 1535 1541
1556 1555 1554 1553 1551 1550 1549 1549 1548 1547 1547 1546 1546 1546 1545 1546 1544 1544 1543 1542 1542 1542 1541 1541 1541 1540 1539 1538 1536 1534 1530 1528 1530 1531 1531 1532 1532 1533 1533 1535 1536 1538 1542
1556 1555 1554 1554 1552 1552 1551 1549 1549 1548 1548 1547 1546 1547 1546 1545 1545 1545 1544 1543 1542 1542 1542 1541 1541 1540 1539 1538 1537 1535 1531 1530 1531 1532 1533 1533 1534 1534 1536 1537 1538 1540 1543
1557 1556 1555 1554 1553 1552 1551 1551 1550 1549 1548 1548 1547 1546 1547 1546 1546 1546 1546 1545 1543 1543 1542 1541 1540 1540 1539 1538 1537 1536 1534 1534 1534 1534 1534 1534 1535 1536 1536 1537 1537 1539 1542
1558 1557 1556 1555 1554 1553 1552 1551 1550 1549 1549 1548 1548 1548 1547 1546 1546 1546 1546 1546 1545 1544 1542 1541 1541 1540 1539 1538 1537 1537 1536 1535 1535 1535 1535 1535 1536 1536 1536 1536 1535 1536 1540
1559 1558 1557 1556 1555 1554 1553 1552 1551 1550 1550 1549 1549 1548 1548 1547 1547 1547 1546 1546 1545 1545 1543 1542 1541 1540 1539 1539 1538 1537 1537 1536 1536 1535 1535 1535 1536 1536 1537 1536 1536 1537 1540
1560 1559 1558 1557 1556 1555 1554 1553 1552 1551 1551 1550 1549 1549 1548 1548 1547 1547 1547 1546 1545 1545 1544 1543 1542 1541 1540 1539 1538 1537 1537 1537 1536 1536 1535 1536 1536 1536 1536 1537 1538 1539 1540
1560 1559 1558 1558 1557 1556 1555 1554 1553 1552 1552 1551 1550 1549 1548 1548 1548 1547 1547 1546 1546 1545 1545 1544 1543 1541 1540 1539 1538 1537 1537 1536 1536 1536 1536 1536 1536 1536 1536 1537 1538 1539 1540
1559 1559 1559 1558 1557 1556 1555 1555 1554 1553 1552 1552 1551 1550 1549 1549 1548 1547 1547 1546 1547 1545 1545 1544 1543 1541 1540 1539 1537 1537 1537 1535 1535 1535 1535 1535 1535 1536 1536 1537 1538 1538 1539
1559 1559 1559 1558 1558 1557 1556 1555 1554 1553 1553 1552 1551 1550 1549 1549 1548 1547 1547 1546 1546 1546 1545 1544 1542 1541 1539 1538 1537 1536 1536 1535 1534 1534 1534 1534 1535 1535 1535 1536 1536 1537 1538
1558 1559 1558 1558 1558 1557 1556 1555 1555 1554 1553 1553 1552 1551 1550 1549 1548 1547 1546 1546 1545 1545 1544 1543 1542 1540 1539 1538 1536 1535 1535 1534 1534 1533 1533 1533 1533 1533 1533 1534 1534 1535 1536
1558 1558 1558 1558 1557 1557 1556 1555 1555 1554 1553 1553 1552 1551 1550 1549 1548 1547 1546 1545 1544 1544 1543 1542 1541 1539 1538 1536 1535 1534 1533 1533 1532 1531 1531 1531 1531 1531 1531 1532 1532 1532 1533
1558 1558 1558 1557 1557 1556 1556 1555 1555 1554 1553 1552 1552 1551 1550 1549 1548 1547 1546 1545 1544 1543 1542 1541 1539 1538 1536 1535 1533 1532 1532 1531 1530 1530 1529 1528 1528 1528 1528 1528 1529 1529 1530
1557 1557 1557 1557 1557 1556 1556 1555 1554 1554 1553 1552 1551 1550 1549 1548 1547 1546 1545 1544 1543 1542 1541 1539 1538 1537 1535 1534 1532 1531 1530 1529 1528 1528 1527 1526 1525 1525 1525 1525 1525 1525 1526
1556 1557 1557 1556 1556 1555 1555 1554 1554 1553 1553 1552 1551 1550 1548 1547 1546 1544 1544 1543 1542 1541 1540 1538 1537 1536 1535 1533 1531 1530 1528 1527 1526 1525 1524 1524 1523 1522 1522 1521 1521 1521 1521
1556 1556 1556 1555 1555 1555 1554 1553 1553 1553 1552 1551 1550 1549 1548 1546 1545 1543 1542 1541 1540 1539 1538 1537 1536 1535 1533 1532 1530 1528 1527 1525 1524 1524 1522 1521 1520 1519 1518 1518 1517 1516 1516
1554 1555 1555 1555 1554 1554 1553 1552 1552 1551 1551 1550 1549 1548 1547 1545 1544 1543 1541 1539 1538 1537 1536 1535 1534 1533 1531 1530 1528 1526 1525 1523 1522 1520 1519 1517 1517 1515 1514 1513 1512 1512 1511
1553 1554 1554 1554 1553 1553 1552 1551 1551 1551 1550 1549 1548 1547 1546 1544 1542 1541 1540 1539 1537 1535 1534 1533 1532 1530 1528 1526 1525 1523 1522 1520 1518 1517 1516 1514 1512 1511 1510 1508 1507 1506 1506
1552 1553 1553 1553 1552 1552 1551 1550 1549 1549 1549 1548 1546 1545 1543 1542 1540 1538 1537 1536 1535 1533 1531 1529 1527 1526 1524 1523 1521 1520 1518 1517 1515 1514 1513 1511 1508 1507 1505 1503 1502 1501 1500
1551 1551 1551 1551 1551 1551 1550 1549 1548 1548 1547 1546 1545 1543 1541 1539 1538 1536 1535 1534 1532 1530 1528 1526 1524 1523 1521 1520 1518 1517 1515 1514 1511 1510 1509 1507 1504 1503 1500 1498 1497 1496 1494